Location: Bilsen
(53.7722°N, 9.8765°E)
Time: 16:34:35
(UTC+00:00)

Cosmos 1455 - Pass Details

Date: 18 February 2020
Orbit: 500 x 522 km, 82.5° (Epoch: 07 April)

Event Time Altitude Azimuth Distance (km) Brightness Sun altitude
Exits shadow 05:25:43 10° 312° (NW) 1,722 4.4 -10.8°
Drops below altitude 10° 05:25:54 10° 315° (NW) 1,736 4.4 -10.8°
Sets 05:29:50 0° 356° (N) 2,622 5.7 -10.2°
